Flag for Germany Weather past 2 weeks in Rotenburg (Wümme), Lower Saxony, Germany

Now
74 °F

Partly sunny.


Feels Like: 77 °F
Forecast: 59 / 71 °F
Wind: 5 mph from Southeast

Location: Bremen

Current Time: Aug 28, 2014 at 4:05:19 PM

Latest Report: Aug 28, 2014 at 3:00 PM


Visibility: 22 mi

Pressure: 29.98 "Hg

Humidity: 44%

Dew point: 51 °F

Location of Rotenburg (Wümme)Location

Historic Weather in Rotenburg (Wümme) — Graph

°F

Rotenburg (Wümme) temperature yesterday

Maximum temperature yesterday: 70 °F (at 4:00 PM)
Minimum temperature yesterday: 44 °F (at 5:00 AM)
Average temperature yesterday: 59 °F

Past Weeks' High & Low Weather Summary

 TemperatureHumidityPressure
High74 °F (Aug 28, 3:00 PM)99% (Aug 27, 4:00 AM)30.05 "Hg (Aug 27, 4:00 AM)
Low43 °F (Aug 25, 6:00 AM)33% (Aug 27, 3:00 PM)29.53 "Hg (Aug 18, 9:00 AM)
Average57 °F78%29.85 "Hg
* Reported Aug 13 3:00 PM — Aug 28 3:00 PM, Rotenburg (Wümme), Weather by CustomWeather, © 2014

Note: Actual official high and low records may vary slightly from our data, if they occured in-between our weather recording intervals... More about our weather records

Advertising

Rotenburg (Wümme) weather history for previous 24 hours

 ConditionsComfort  
Time TempWeatherWind HumidityBarometerVisibility
3:00 PM
Aug 28
74 °FPartly sunny.5 mph44%29.98 "Hg22 mi
2:00 PM74 °FScattered clouds.5 mph39%29.99 "Hg22 mi
1:00 PM71 °FPassing clouds.6 mph36%30.00 "Hg22 mi
12:00 PM70 °FPassing clouds.8 mph41%30.02 "Hg22 mi
10:00 AM62 °FPassing clouds.2 mph66%30.03 "Hg19 mi
9:00 AM55 °FPassing clouds.3 mph77%30.04 "Hg16 mi
8:00 AM52 °FPassing clouds.1 mph82%30.04 "Hg12 mi
7:00 AM47 °FFog.1 mph93%30.04 "Hg16 mi
6:00 AM48 °FFog.1 mph91%30.03 "Hg19 mi
4:00 AM49 °FFog.1 mph94%30.04 "Hg19 mi
3:00 AM50 °FFog.1 mph94%30.04 "Hg19 mi
2:00 AM50 °FFog.1 mph95%30.05 "Hg19 mi
1:00 AM52 °FFog.1 mph91%30.05 "Hg19 mi
12:00 AM54 °FPassing clouds.1 mph85%30.05 "Hg25 mi
10:00 PM
Aug 27
62 °FPassing clouds.2 mph57%30.04 "Hg25 mi
9:00 PM65 °FPassing clouds.3 mph48%30.03 "Hg25 mi
8:00 PM66 °FScattered clouds.2 mph46%30.02 "Hg25 mi
7:00 PM68 °FPassing clouds.3 mph39%30.01 "Hg25 mi
6:00 PM70 °FPassing clouds.2 mph37%30.01 "Hg25 mi
5:00 PM70 °FPassing clouds.2 mph44%30.01 "Hg25 mi
4:00 PM70 °FPassing clouds.3 mph39%30.02 "Hg25 mi
Weather by CustomWeather, © 2014

See weather overviewHow to use our weather pages